W2CJS Weather Reports


Display with metric or nautical units.
time (UTC)temp
F
wind
direction
speed
MPH
gust
MPH
rain 1hr
in
rain 24hr
in
rain mn
in
humidity
%
barometer
mb
20201027113116 34 52 0.0 2.0 0.00 0.18 0.02 95 1019.9
20201027112216 34 49 0.0 3.0 0.00 0.18 0.02 95 1019.9
20201027111312 34 49 1.0 3.0 0.00 0.18 0.02 95 1019.8
20201027110412 34 42 1.0 4.0 0.00 0.18 0.02 95 1019.3
20201027105513 34 319 1.0 3.0 0.00 0.18 0.02 95 1019.6
20201027104612 34 34 0.0 2.0 0.00 0.18 0.02 95 1019.8
20201027103712 34 46 0.0 2.0 0.00 0.18 0.02 95 1019.8
20201027102813 34 47 1.0 4.0 0.00 0.18 0.02 95 1019.6
20201027101913 35 199 1.0 5.0 0.00 0.18 0.02 95 1019.6
20201027101014 35 74 0.0 3.0 0.00 0.18 0.02 95 1019.7
20201027100114 35 74 0.0 1.0 0.00 0.18 0.02 95 1019.4
20201027095212 35 74 0.0 1.0 0.00 0.18 0.02 95 1019.1
20201027094312 35 74 0.0 1.0 0.00 0.18 0.02 95 1018.8
20201027093414 35 54 0.0 3.0 0.00 0.18 0.02 94 1018.8
20201027092521 35 284 0.0 2.0 0.00 0.18 0.02 94 1018.7
20201027091613 35 325 1.0 3.0 0.00 0.18 0.02 95 1018.9
20201027090713 36 18 0.0 3.0 0.00 0.18 0.02 95 1019.0
20201027085812 36 43 0.0 3.0 0.00 0.18 0.02 95 1018.9
20201027084912 36 0 0.0 0.0 0.00 0.18 0.02 95 1018.9
20201027084017 36 0 0.0 0.0 0.00 0.18 0.02 95 1019.1
20201027083112 36 15 0.0 1.0 0.00 0.18 0.02 95 1018.7
20201027082215 36 15 0.0 2.0 0.00 0.19 0.02 95 1018.7
20201027081314 36 0 0.0 0.0 0.00 0.20 0.02 95 1018.6
20201027080412 36 15 0.0 2.0 0.00 0.21 0.02 95 1018.4
20201027075512 36 0 0.0 0.0 0.00 0.22 0.02 95 1018.4
20201027074612 36 0 0.0 0.0 0.00 0.22 0.02 95 1018.2
20201027073717 36 0 0.0 0.0 0.00 0.22 0.02 95 1018.2
20201027072812 36 15 0.0 2.0 0.01 0.22 0.02 95 1018.1
20201027071914 36 16 0.0 1.0 0.01 0.22 0.02 94 1018.1
20201027071019 36 287 1.0 2.0 0.01 0.22 0.02 94 1018.2
20201027070112 37 34 0.0 2.0 0.01 0.22 0.02 94 1018.0
20201027065212 37 11 0.0 3.0 0.01 0.22 0.02 94 1018.1
20201027064312 37 268 0.0 3.0 0.01 0.22 0.02 94 1018.0
20201027063412 37 277 1.0 2.0 0.01 0.22 0.02 94 1018.0
20201027062519 38 271 1.0 3.0 0.00 0.21 0.01 94 1018.0
20201027061612 38 58 0.0 2.0 0.00 0.21 0.01 95 1017.8
20201027060717 38 26 0.0 1.0 0.01 0.21 0.01 95 1018.0
20201027055812 38 53 0.0 2.0 0.01 0.21 0.01 95 1018.2
20201027054914 38 75 0.0 3.0 0.01 0.21 0.01 95 1018.3
20201027054025 38 0 0.0 0.0 0.01 0.21 0.01 95 1018.2
20201027053112 38 76 0.0 1.0 0.01 0.21 0.01 95 1018.1
20201027052213 38 67 0.0 2.0 0.01 0.21 0.01 95 1017.9
20201027051313 39 37 1.0 7.0 0.01 0.21 0.01 95 1017.9
20201027050421 39 340 1.0 3.0 0.00 0.20 0.00 95 1017.8
20201027045522 39 348 1.0 4.0 0.00 0.20 0.00 95 1017.8
20201027044619 39 0 0.0 0.0 0.00 0.20 0.00 95 1017.6
20201027043712 39 0 0.0 0.0 0.00 0.20 0.00 95 1017.5
20201027042812 39 284 0.0 1.0 0.00 0.20 0.00 95 1017.4
20201027041912 40 284 0.0 1.0 0.00 0.20 0.00 95 1017.2
20201027041023 40 284 0.0 2.0 0.00 0.20 0.00 95 1017.4
20201027040117 40 283 0.0 1.0 0.00 0.20 0.00 94 1017.3
20201027035222 40 0 0.0 0.0 0.00 0.20 0.20 94 1017.3
20201027034313 40 0 0.0 0.0 0.00 0.20 0.20 95 1017.0
20201027033414 40 0 0.0 0.0 0.00 0.20 0.20 94 1017.1
20201027032518 41 342 1.0 4.0 0.00 0.20 0.20 94 1017.1
20201027031612 41 290 1.0 4.0 0.01 0.20 0.20 94 1017.2
20201027030720 42 271 1.0 3.0 0.01 0.20 0.20 95 1017.3
20201027025815 42 67 1.0 6.0 0.01 0.20 0.20 95 1017.0
20201027024912 43 256 0.0 2.0 0.01 0.20 0.20 95 1016.7
20201027024019 43 255 0.0 3.0 0.01 0.20 0.20 95 1016.6
20201027023112 43 200 0.0 4.0 0.01 0.20 0.20 95 1016.6
20201027022217 43 0 0.0 0.0 0.00 0.19 0.19 95 1016.5
20201027021314 43 305 0.0 1.0 0.00 0.19 0.19 95 1016.3
20201027020412 43 305 0.0 3.0 0.00 0.19 0.19 95 1016.4
20201027015522 43 304 1.0 3.0 0.00 0.19 0.19 95 1016.4
20201027014616 44 86 0.0 3.0 0.00 0.19 0.19 95 1016.3
20201027013712 44 281 2.0 7.0 0.00 0.19 0.19 95 1016.3
20201027012813 44 341 1.0 9.0 0.00 0.19 0.19 96 1016.1
20201027011912 45 311 1.0 3.0 0.00 0.19 0.19 96 1016.1
20201027011018 45 212 0.0 3.0 0.01 0.19 0.19 96 1016.0
20201027010112 45 185 1.0 4.0 0.01 0.19 0.19 96 1015.8
20201027005216 45 197 1.0 5.0 0.01 0.19 0.19 96 1015.5
20201027004312 45 178 0.0 3.0 0.01 0.19 0.19 97 1015.3
20201027003412 45 172 1.0 4.0 0.01 0.19 0.19 97 1015.2
20201027002522 45 0 0.0 0.0 0.01 0.19 0.19 97 1015.2
20201027001613 45 47 0.0 2.0 0.00 0.18 0.18 97 1015.0
20201027000717 45 294 0.0 3.0 0.00 0.18 0.18 97 1014.9
20201026235816 44 346 0.0 2.0 0.00 0.18 0.18 96 1014.9
20201026234912 44 0 0.0 0.0 0.00 0.18 0.18 96 1014.8
20201026234012 44 0 0.0 0.0 0.00 0.18 0.18 96 1014.8
20201026233112 44 0 0.0 0.0 0.01 0.18 0.18 97 1014.8
20201026232212 44 0 0.0 0.0 0.01 0.18 0.18 97 1014.6
20201026231314 43 0 0.0 0.0 0.01 0.18 0.18 96 1014.6
20201026230413 43 0 0.0 0.0 0.02 0.18 0.18 96 1014.5
20201026225524 43 0 0.0 0.0 0.02 0.18 0.18 96 1014.2
20201026224612 43 0 0.0 0.0 0.02 0.18 0.18 96 1014.2
20201026223713 43 0 0.0 0.0 0.02 0.18 0.18 96 1014.3
20201026222814 43 0 0.0 0.0 0.02 0.17 0.17 96 1014.5
20201026221916 43 0 0.0 0.0 0.02 0.17 0.17 96 1014.5
20201026221022 43 0 0.0 0.0 0.03 0.17 0.17 96 1014.4
20201026220112 43 0 0.0 0.0 0.02 0.16 0.16 96 1014.4
20201026215212 43 0 0.0 0.0 0.02 0.16 0.16 96 1014.4
20201026214312 43 0 0.0 0.0 0.03 0.16 0.16 95 1014.3
20201026213412 43 0 0.0 0.0 0.03 0.16 0.16 95 1014.5
20201026212526 43 0 0.0 0.0 0.03 0.15 0.15 95 1014.4
20201026211616 44 0 0.0 0.0 0.03 0.15 0.15 96 1014.2
20201026210713 44 0 0.0 0.0 0.03 0.14 0.14 96 1014.3
20201026205813 44 0 0.0 0.0 0.03 0.14 0.14 96 1014.2
20201026204912 44 0 0.0 0.0 0.04 0.14 0.14 95 1014.1
20201026204035 44 0 0.0 0.0 0.03 0.13 0.13 96 1014.1
20201026203115 44 0 0.0 0.0 0.04 0.13 0.13 95 1014.4
20201026202214 43 0 0.0 0.0 0.04 0.12 0.12 95 1014.5
20201026201313 43 355 0.0 1.0 0.04 0.12 0.12 95 1014.4
20201026200415 43 355 0.0 3.0 0.03 0.11 0.11 95 1014.3
20201026195513 44 0 0.0 0.0 0.03 0.11 0.11 95 1014.3
20201026194612 44 355 0.0 2.0 0.02 0.10 0.10 95 1014.3
20201026193715 44 355 1.0 2.0 0.02 0.10 0.10 95 1014.4
20201026192817 44 354 1.0 2.0 0.01 0.09 0.09 94 1014.3
20201026191914 44 355 0.0 2.0 0.00 0.08 0.08 94 1014.4
20201026191041 44 355 0.0 2.0 0.00 0.08 0.08 94 1014.3
20201026190113 44 355 0.0 2.0 0.00 0.08 0.08 94 1014.2
20201026185212 44 354 1.0 3.0 0.01 0.08 0.08 94 1014.1
20201026184312 44 349 1.0 3.0 0.01 0.08 0.08 93 1014.1
20201026183413 45 233 1.0 3.0 0.01 0.08 0.08 93 1014.1
20201026182518 45 197 1.0 3.0 0.02 0.08 0.08 93 1014.4
20201026181612 45 203 1.0 6.0 0.02 0.08 0.08 94 1014.3
20201026180712 44 218 1.0 5.0 0.03 0.08 0.08 94 1014.5
20201026175812 44 233 1.0 3.0 0.02 0.07 0.07 94 1014.6
20201026174913 44 262 1.0 4.0 0.02 0.07 0.07 94 1015.1
20201026174022 44 0 0.0 0.0 0.02 0.07 0.07 94 1015.5
20201026173113 44 0 0.0 0.0 0.01 0.06 0.06 94 1015.7
20201026172212 43 309 0.0 1.0 0.01 0.06 0.06 94 1015.9
20201026171312 43 0 0.0 0.0 0.01 0.05 0.05 94 1016.0
20201026170412 43 309 0.0 1.0 0.01 0.05 0.05 93 1016.1
20201026165518 43 299 0.0 3.0 0.01 0.05 0.05 93 1016.1
20201026164622 43 227 1.0 2.0 0.01 0.05 0.05 93 1016.1
20201026163712 42 148 0.0 6.0 0.01 0.05 0.05 93 1015.9
20201026162812 42 36 1.0 4.0 0.01 0.05 0.05 93 1016.0
20201026161921 42 21 1.0 5.0 0.00 0.04 0.04 92 1016.2
20201026161014 42 16 1.0 4.0 0.00 0.04 0.04 92 1016.3
20201026160113 42 23 1.0 4.0 0.00 0.04 0.04 91 1016.2
20201026155212 42 84 1.0 4.0 0.00 0.05 0.04 91 1016.3
20201026154312 42 25 1.0 4.0 0.00 0.05 0.04 90 1016.4
20201026153414 42 11 2.0 5.0 0.00 0.05 0.04 90 1016.4
20201026152520 41 29 2.0 4.0 0.00 0.05 0.04 89 1016.4
20201026151616 41 47 2.0 6.0 0.00 0.05 0.04 89 1016.5
20201026150714 41 38 2.0 4.0 0.00 0.05 0.04 90 1016.5
20201026145812 40 39 2.0 4.0 0.00 0.05 0.04 90 1016.5
20201026144912 40 45 3.0 7.0 0.00 0.05 0.04 90 1016.5
20201026144024 40 44 3.0 6.0 0.00 0.05 0.04 90 1016.8
20201026143116 39 42 3.0 9.0 0.00 0.05 0.04 90 1017.3
20201026142217 39 50 3.0 6.0 0.00 0.05 0.04 90 1017.5
20201026141312 39 48 3.0 9.0 0.00 0.05 0.04 89 1017.5
20201026140412 39 39 3.0 7.0 0.00 0.05 0.04 89 1017.4
20201026135513 39 42 4.0 9.0 0.00 0.05 0.04 88 1017.4
20201026134620 39 48 3.0 8.0 0.00 0.05 0.04 89 1017.5
20201026133712 39 40 3.0 8.0 0.00 0.05 0.04 89 1017.5
20201026132813 39 59 3.0 8.0 0.00 0.05 0.04 89 1017.6
20201026131912 39 58 3.0 10.0 0.00 0.05 0.04 90 1017.9
20201026131024 38 50 2.0 5.0 0.00 0.05 0.04 90 1018.0
20201026130119 38 45 2.0 7.0 0.00 0.05 0.04 91 1018.1
20201026125212 38 41 2.0 4.0 0.00 0.05 0.04 90 1017.9
20201026124312 38 23 3.0 10.0 0.00 0.05 0.04 90 1017.9
20201026123414 38 53 2.0 5.0 0.00 0.05 0.04 90 1017.8
20201026122522 38 20 3.0 7.0 0.00 0.05 0.04 90 1018.0
20201026121615 37 32 2.0 5.0 0.00 0.05 0.04 90 1018.0
20201026120742 37 50 3.0 9.0 0.00 0.05 0.04 90 1017.9
20201026115814 37 30 2.0 7.0 0.00 0.05 0.04 91 1017.9
20201026114912 37 48 2.0 5.0 0.00 0.05 0.04 90 1018.2
20201026114015 37 50 3.0 5.0 0.00 0.05 0.04 90 1018.3